Time,TemperatureF,DewpointF,PressureIn,WindDirection,WindDirectionDegrees,WindSpeedMPH,WindSpeedGustMPH,Humidity,HourlyPrecipIn,Conditions,Clouds,dailyrainin,SoftwareType,DateUTC
2013-01-11 00:04:00,73.0,67.0,30.25,ESE,108,7.0,11.0,81,-99.99,,,-99.99,,2013-01-11 05:04:00,
2013-01-11 00:13:00,73.0,68.0,30.25,ESE,103,7.0,12.0,82,-99.99,,,-99.99,,2013-01-11 05:13:00,
2013-01-11 00:23:00,73.0,68.0,30.25,ESE,103,7.0,12.0,82,-99.99,,,-99.99,,2013-01-11 05:23:00,
2013-01-11 00:33:00,74.0,68.0,30.25,East,101,7.0,11.0,81,-99.99,,,-99.99,,2013-01-11 05:33:00,
2013-01-11 00:43:00,74.0,68.0,30.24,ESE,106,9.0,14.0,80,-99.99,,,-99.99,,2013-01-11 05:43:00,
2013-01-11 00:53:00,74.0,68.0,30.25,ESE,111,9.0,15.0,79,-99.99,,,-99.99,,2013-01-11 05:53:00,
2013-01-11 01:03:00,74.0,68.0,30.25,ESE,111,9.0,15.0,79,-99.99,,,-99.99,,2013-01-11 06:03:00,
2013-01-11 01:12:00,74.0,67.0,30.25,ESE,116,7.0,14.0,79,-99.99,,,-99.99,,2013-01-11 06:12:00,
2013-01-11 01:22:00,74.0,67.0,30.25,ESE,116,7.0,14.0,79,-99.99,,,-99.99,,2013-01-11 06:22:00,
2013-01-11 01:32:00,74.0,67.0,30.24,ESE,120,7.0,14.0,79,-99.99,,,-99.99,,2013-01-11 06:32:00,
2013-01-11 01:42:00,73.0,67.0,30.24,ESE,122,6.0,10.0,81,-99.99,,,-99.99,,2013-01-11 06:42:00,
2013-01-11 01:52:00,73.0,67.0,30.24,ESE,117,5.0,8.0,82,-99.99,,,-99.99,,2013-01-11 06:52:00,
2013-01-11 02:02:00,73.0,67.0,30.24,ESE,117,5.0,8.0,82,-99.99,,,-99.99,,2013-01-11 07:02:00,
2013-01-11 02:12:00,72.0,67.0,30.24,ESE,111,4.0,7.0,84,-99.99,,,-99.99,,2013-01-11 07:12:00,
2013-01-11 02:22:00,72.0,67.0,30.24,ESE,111,4.0,7.0,84,-99.99,,,-99.99,,2013-01-11 07:22:00,
2013-01-11 02:32:00,72.0,67.0,30.23,ESE,118,4.0,6.0,85,-99.99,,,-99.99,,2013-01-11 07:32:00,
2013-01-11 02:42:00,72.0,67.0,30.23,ESE,120,4.0,8.0,85,-99.99,,,-99.99,,2013-01-11 07:42:00,
2013-01-11 02:52:00,72.0,67.0,30.22,SE,133,4.0,6.0,85,-99.99,,,-99.99,,2013-01-11 07:52:00,
2013-01-11 03:02:00,72.0,67.0,30.22,SE,133,4.0,6.0,85,-99.99,,,-99.99,,2013-01-11 08:02:00,
2013-01-11 03:12:00,71.0,67.0,30.22,ESE,119,3.0,4.0,86,-99.99,,,-99.99,,2013-01-11 08:12:00,
2013-01-11 03:22:00,71.0,67.0,30.22,ESE,119,3.0,4.0,86,-99.99,,,-99.99,,2013-01-11 08:22:00,
2013-01-11 03:32:00,71.0,67.0,30.22,ESE,119,3.0,4.0,86,-99.99,,,-99.99,,2013-01-11 08:32:00,
2013-01-11 03:42:00,71.0,67.0,30.20,NNW,334,33.0,33.0,88,-99.99,,,-99.99,,2013-01-11 08:42:00,
2013-01-11 03:53:00,70.0,67.0,30.19,WSW,237,20.0,34.0,89,-99.99,,,-99.99,,2013-01-11 08:53:00,
2013-01-11 04:02:00,70.0,67.0,30.19,WSW,237,20.0,34.0,89,-99.99,,,-99.99,,2013-01-11 09:02:00,
2013-01-11 04:12:00,70.0,67.0,30.19,ESE,107,2.0,9.0,91,-99.99,,,-99.99,,2013-01-11 09:12:00,
2013-01-11 04:23:00,70.0,67.0,30.19,ESE,107,2.0,9.0,91,-99.99,,,-99.99,,2013-01-11 09:23:00,
2013-01-11 04:32:00,69.0,67.0,30.18,SE,137,4.0,33.0,92,-99.99,,,-99.99,,2013-01-11 09:32:00,
2013-01-11 04:42:00,70.0,67.0,30.18,ESE,102,2.0,10.0,91,-99.99,,,-99.99,,2013-01-11 09:42:00,
2013-01-11 04:52:00,70.0,67.0,30.18,East,91,3.0,5.0,90,-99.99,,,-99.99,,2013-01-11 09:52:00,
2013-01-11 05:02:00,70.0,67.0,30.18,East,91,3.0,5.0,90,-99.99,,,-99.99,,2013-01-11 10:02:00,
2013-01-11 05:12:00,71.0,68.0,30.17,SE,127,8.0,45.0,89,-99.99,,,-99.99,,2013-01-11 10:12:00,
2013-01-11 05:22:00,71.0,68.0,30.17,SE,127,8.0,45.0,89,-99.99,,,-99.99,,2013-01-11 10:22:00,
2013-01-11 05:32:00,71.0,68.0,30.17,WSW,256,16.0,30.0,89,-99.99,,,-99.99,,2013-01-11 10:32:00,
2013-01-11 05:42:00,71.0,68.0,30.17,SE,138,2.0,3.0,90,-99.99,,,-99.99,,2013-01-11 10:42:00,
2013-01-11 05:53:00,72.0,68.0,30.17,South,187,7.0,31.0,87,-99.99,,,-99.99,,2013-01-11 10:53:00,
2013-01-11 06:03:00,72.0,68.0,30.17,South,187,7.0,31.0,87,-99.99,,,-99.99,,2013-01-11 11:03:00,
2013-01-11 06:12:00,72.0,67.0,30.17,SE,145,5.0,8.0,84,-99.99,,,-99.99,,2013-01-11 11:12:00,
2013-01-11 06:22:00,72.0,67.0,30.17,SE,145,5.0,8.0,84,-99.99,,,-99.99,,2013-01-11 11:22:00,
2013-01-11 06:33:00,72.0,67.0,30.17,SE,145,5.0,8.0,84,-99.99,,,-99.99,,2013-01-11 11:33:00,
2013-01-11 06:43:00,72.0,68.0,30.18,SSE,149,6.0,8.0,86,-99.99,,,-99.99,,2013-01-11 11:43:00,
2013-01-11 06:53:00,72.0,68.0,30.18,SE,144,5.0,11.0,86,-99.99,,,-99.99,,2013-01-11 11:53:00,
2013-01-11 07:03:00,72.0,68.0,30.18,SE,144,5.0,11.0,86,-99.99,,,-99.99,,2013-01-11 12:03:00,
2013-01-11 07:12:00,71.0,67.0,30.18,SSE,148,4.0,6.0,86,-99.99,,,-99.99,,2013-01-11 12:12:00,
2013-01-11 07:23:00,71.0,67.0,30.18,SSE,148,4.0,6.0,86,-99.99,,,-99.99,,2013-01-11 12:23:00,
2013-01-11 07:33:00,71.0,67.0,30.18,SE,144,5.0,6.0,87,-99.99,,,-99.99,,2013-01-11 12:33:00,
2013-01-11 07:43:00,71.0,67.0,30.19,SE,139,4.0,8.0,87,-99.99,,,-99.99,,2013-01-11 12:43:00,
2013-01-11 07:53:00,71.0,67.0,30.19,SE,133,3.0,4.0,86,-99.99,,,-99.99,,2013-01-11 12:53:00,
2013-01-11 08:03:00,71.0,67.0,30.19,SE,133,3.0,4.0,86,-99.99,,,-99.99,,2013-01-11 13:03:00,
2013-01-11 08:13:00,71.0,67.0,30.19,SSE,147,3.0,4.0,87,-99.99,,,-99.99,,2013-01-11 13:13:00,
2013-01-11 08:22:00,71.0,67.0,30.19,SSE,147,3.0,4.0,87,-99.99,,,-99.99,,2013-01-11 13:22:00,
2013-01-11 08:33:00,71.0,67.0,30.19,SE,141,2.0,4.0,86,-99.99,,,-99.99,,2013-01-11 13:33:00,
2013-01-11 08:43:00,73.0,67.0,30.20,SSE,149,2.0,5.0,82,-99.99,,,-99.99,,2013-01-11 13:43:00,
2013-01-11 08:53:00,74.0,68.0,30.20,SE,144,3.0,7.0,81,-99.99,,,-99.99,,2013-01-11 13:53:00,
2013-01-11 09:03:00,74.0,68.0,30.20,SE,144,3.0,7.0,81,-99.99,,,-99.99,,2013-01-11 14:03:00,
2013-01-11 09:12:00,74.0,68.0,30.20,SE,146,4.0,7.0,80,-99.99,,,-99.99,,2013-01-11 14:12:00,
2013-01-11 09:23:00,74.0,68.0,30.20,SE,146,4.0,7.0,80,-99.99,,,-99.99,,2013-01-11 14:23:00,
2013-01-11 09:33:00,74.0,68.0,30.21,SE,139,2.0,4.0,82,-99.99,,,-99.99,,2013-01-11 14:33:00,
2013-01-11 09:43:00,74.0,68.0,30.21,SE,127,2.0,3.0,81,-99.99,,,-99.99,,2013-01-11 14:43:00,
2013-01-11 09:53:00,74.0,69.0,30.21,ESE,119,3.0,6.0,81,-99.99,,,-99.99,,2013-01-11 14:53:00,
2013-01-11 10:03:00,74.0,69.0,30.21,ESE,119,3.0,6.0,81,-99.99,,,-99.99,,2013-01-11 15:03:00,
2013-01-11 10:13:00,75.0,69.0,30.22,SE,139,3.0,7.0,81,-99.99,,,-99.99,,2013-01-11 15:13:00,
2013-01-11 10:23:00,75.0,69.0,30.22,SE,139,3.0,7.0,81,-99.99,,,-99.99,,2013-01-11 15:23:00,
2013-01-11 10:33:00,75.0,68.0,30.23,SSE,149,8.0,11.0,76,-99.99,,,-99.99,,2013-01-11 15:33:00,
2013-01-11 10:43:00,76.0,68.0,30.23,SSE,150,6.0,10.0,76,-99.99,,,-99.99,,2013-01-11 15:43:00,
2013-01-11 10:53:00,75.0,68.0,30.23,SE,134,8.0,14.0,78,-99.99,,,-99.99,,2013-01-11 15:53:00,
2013-01-11 11:03:00,75.0,68.0,30.23,SE,134,8.0,14.0,78,-99.99,,,-99.99,,2013-01-11 16:03:00,
2013-01-11 11:13:00,74.0,69.0,30.23,SE,138,6.0,11.0,83,-99.99,,,-99.99,,2013-01-11 16:13:00,
2013-01-11 11:23:00,74.0,69.0,30.23,SE,138,6.0,11.0,83,-99.99,,,-99.99,,2013-01-11 16:23:00,
2013-01-11 11:33:00,74.0,69.0,30.23,SSE,165,6.0,12.0,83,-99.99,,,-99.99,,2013-01-11 16:33:00,
2013-01-11 11:43:00,77.0,70.0,30.22,South,173,5.0,8.0,78,-99.99,,,-99.99,,2013-01-11 16:43:00,
2013-01-11 11:53:00,78.0,70.0,30.22,SSE,156,4.0,11.0,76,-99.99,,,-99.99,,2013-01-11 16:53:00,
2013-01-11 12:03:00,78.0,70.0,30.22,SSE,156,4.0,11.0,76,-99.99,,,-99.99,,2013-01-11 17:03:00,
2013-01-11 12:12:00,78.0,69.0,30.21,SE,134,9.0,18.0,73,-99.99,,,-99.99,,2013-01-11 17:12:00,
2013-01-11 12:22:00,78.0,69.0,30.21,SE,134,9.0,18.0,73,-99.99,,,-99.99,,2013-01-11 17:22:00,
2013-01-11 12:33:00,78.0,69.0,30.21,SE,134,9.0,18.0,73,-99.99,,,-99.99,,2013-01-11 17:33:00,
2013-01-11 12:43:00,77.0,69.0,30.20,SE,127,10.0,15.0,74,-99.99,,,-99.99,,2013-01-11 17:43:00,
2013-01-11 12:53:00,78.0,69.0,30.20,ESE,122,12.0,21.0,72,-99.99,,,-99.99,,2013-01-11 17:53:00,
2013-01-11 13:04:00,78.0,69.0,30.20,ESE,122,12.0,21.0,72,-99.99,,,-99.99,,2013-01-11 18:04:00,
2013-01-11 13:13:00,78.0,68.0,30.19,ESE,121,13.0,19.0,69,-99.99,,,-99.99,,2013-01-11 18:13:00,
2013-01-11 13:23:00,78.0,68.0,30.19,ESE,121,13.0,19.0,69,-99.99,,,-99.99,,2013-01-11 18:23:00,
2013-01-11 13:33:00,78.0,68.0,30.18,SE,127,11.0,18.0,70,-99.99,,,-99.99,,2013-01-11 18:33:00,
2013-01-11 13:43:00,79.0,69.0,30.18,ESE,110,12.0,19.0,71,-99.99,,,-99.99,,2013-01-11 18:43:00,
2013-01-11 13:53:00,78.0,70.0,30.18,ESE,108,11.0,19.0,75,-99.99,,,-99.99,,2013-01-11 18:53:00,
2013-01-11 14:03:00,78.0,70.0,30.18,ESE,108,11.0,19.0,75,-99.99,,,-99.99,,2013-01-11 19:03:00,
2013-01-11 14:13:00,76.0,69.0,30.17,ESE,104,11.0,20.0,78,-99.99,,,-99.99,,2013-01-11 19:13:00,
2013-01-11 14:23:00,76.0,69.0,30.17,ESE,104,11.0,20.0,78,-99.99,,,-99.99,,2013-01-11 19:23:00,
2013-01-11 14:33:00,78.0,70.0,30.16,ESE,102,10.0,18.0,76,-99.99,,,-99.99,,2013-01-11 19:33:00,
2013-01-11 14:43:00,79.0,69.0,30.16,ESE,111,11.0,19.0,71,-99.99,,,-99.99,,2013-01-11 19:43:00,
2013-01-11 14:54:00,78.0,69.0,30.16,ESE,109,13.0,19.0,72,-99.99,,,-99.99,,2013-01-11 19:54:00,
2013-01-11 15:03:00,78.0,69.0,30.16,ESE,109,13.0,19.0,72,-99.99,,,-99.99,,2013-01-11 20:03:00,
2013-01-11 15:13:00,78.0,68.0,30.15,ESE,110,12.0,22.0,72,-99.99,,,-99.99,,2013-01-11 20:13:00,
2013-01-11 15:23:00,78.0,68.0,30.15,ESE,110,12.0,22.0,72,-99.99,,,-99.99,,2013-01-11 20:23:00,
2013-01-11 15:33:00,78.0,68.0,30.15,ESE,110,12.0,22.0,72,-99.99,,,-99.99,,2013-01-11 20:33:00,
2013-01-11 15:43:00,78.0,68.0,30.15,ESE,118,13.0,23.0,71,-99.99,,,-99.99,,2013-01-11 20:43:00,
2013-01-11 15:53:00,78.0,67.0,30.16,ESE,119,12.0,18.0,69,-99.99,,,-99.99,,2013-01-11 20:53:00,
2013-01-11 16:03:00,78.0,67.0,30.16,ESE,119,12.0,18.0,69,-99.99,,,-99.99,,2013-01-11 21:03:00,
2013-01-11 16:13:00,78.0,67.0,30.15,ESE,114,13.0,20.0,69,-99.99,,,-99.99,,2013-01-11 21:13:00,
2013-01-11 16:23:00,78.0,67.0,30.15,ESE,114,13.0,20.0,69,-99.99,,,-99.99,,2013-01-11 21:23:00,
2013-01-11 16:33:00,77.0,67.0,30.15,ESE,113,12.0,17.0,70,-99.99,,,-99.99,,2013-01-11 21:33:00,
2013-01-11 16:42:00,76.0,67.0,30.15,ESE,108,11.0,16.0,73,-99.99,,,-99.99,,2013-01-11 21:42:00,
2013-01-11 16:53:00,76.0,67.0,30.15,ESE,114,11.0,19.0,73,-99.99,,,-99.99,,2013-01-11 21:53:00,
2013-01-11 17:03:00,76.0,67.0,30.15,ESE,114,11.0,19.0,73,-99.99,,,-99.99,,2013-01-11 22:03:00,
2013-01-11 17:12:00,76.0,68.0,30.15,ESE,117,11.0,17.0,74,-99.99,,,-99.99,,2013-01-11 22:12:00,
2013-01-11 17:23:00,76.0,68.0,30.15,ESE,117,11.0,17.0,74,-99.99,,,-99.99,,2013-01-11 22:23:00,
2013-01-11 17:33:00,76.0,68.0,30.15,ESE,112,10.0,16.0,75,-99.99,,,-99.99,,2013-01-11 22:33:00,
2013-01-11 17:42:00,75.0,67.0,30.15,ESE,112,9.0,14.0,77,-99.99,,,-99.99,,2013-01-11 22:42:00,
2013-01-11 17:53:00,74.0,67.0,30.15,ESE,106,8.0,12.0,77,-99.99,,,-99.99,,2013-01-11 22:53:00,
2013-01-11 18:02:00,74.0,67.0,30.15,ESE,106,8.0,12.0,77,-99.99,,,-99.99,,2013-01-11 23:02:00,
2013-01-11 18:13:00,74.0,67.0,30.15,ESE,103,6.0,10.0,78,-99.99,,,-99.99,,2013-01-11 23:13:00,
2013-01-11 18:23:00,74.0,67.0,30.15,ESE,103,6.0,10.0,78,-99.99,,,-99.99,,2013-01-11 23:23:00,
2013-01-11 18:32:00,74.0,67.0,30.15,East,100,6.0,11.0,78,-99.99,,,-99.99,,2013-01-11 23:32:00,
2013-01-11 18:43:00,74.0,67.0,30.15,ESE,108,6.0,8.0,79,-99.99,,,-99.99,,2013-01-11 23:43:00,
2013-01-11 18:54:00,73.0,67.0,30.15,East,101,5.0,8.0,80,-99.99,,,-99.99,,2013-01-11 23:54:00,
2013-01-11 19:03:00,73.0,67.0,30.15,East,101,5.0,8.0,80,-99.99,,,-99.99,,2013-01-12 00:03:00,
2013-01-11 19:12:00,73.0,67.0,30.15,ESE,108,5.0,8.0,82,-99.99,,,-99.99,,2013-01-12 00:12:00,
2013-01-11 19:23:00,73.0,67.0,30.15,ESE,108,5.0,8.0,82,-99.99,,,-99.99,,2013-01-12 00:23:00,
2013-01-11 19:33:00,72.0,67.0,30.15,ESE,118,5.0,8.0,82,-99.99,,,-99.99,,2013-01-12 00:33:00,
2013-01-11 19:43:00,72.0,67.0,30.16,ESE,108,4.0,6.0,83,-99.99,,,-99.99,,2013-01-12 00:43:00,
2013-01-11 19:53:00,72.0,67.0,30.16,ESE,105,5.0,7.0,83,-99.99,,,-99.99,,2013-01-12 00:53:00,
2013-01-11 20:03:00,72.0,67.0,30.16,ESE,105,5.0,7.0,83,-99.99,,,-99.99,,2013-01-12 01:03:00,
2013-01-11 20:12:00,72.0,67.0,30.16,ESE,108,5.0,10.0,83,-99.99,,,-99.99,,2013-01-12 01:12:00,
2013-01-11 20:22:00,72.0,67.0,30.16,ESE,108,5.0,10.0,83,-99.99,,,-99.99,,2013-01-12 01:22:00,
2013-01-11 20:33:00,73.0,67.0,30.16,ESE,106,5.0,9.0,83,-99.99,,,-99.99,,2013-01-12 01:33:00,
2013-01-11 20:43:00,73.0,67.0,30.16,East,101,5.0,8.0,82,-99.99,,,-99.99,,2013-01-12 01:43:00,
2013-01-11 20:53:00,73.0,67.0,30.16,East,97,6.0,9.0,81,-99.99,,,-99.99,,2013-01-12 01:53:00,
2013-01-11 21:03:00,73.0,67.0,30.16,East,97,6.0,9.0,81,-99.99,,,-99.99,,2013-01-12 02:03:00,
2013-01-11 21:12:00,74.0,68.0,30.17,East,96,6.0,9.0,81,-99.99,,,-99.99,,2013-01-12 02:12:00,
2013-01-11 21:22:00,74.0,68.0,30.17,East,96,6.0,9.0,81,-99.99,,,-99.99,,2013-01-12 02:22:00,
2013-01-11 21:33:00,74.0,68.0,30.17,ESE,105,7.0,12.0,80,-99.99,,,-99.99,,2013-01-12 02:33:00,
2013-01-11 21:43:00,74.0,68.0,30.17,ESE,103,7.0,11.0,80,-99.99,,,-99.99,,2013-01-12 02:43:00,
2013-01-11 21:53:00,74.0,67.0,30.17,ESE,113,8.0,12.0,79,-99.99,,,-99.99,,2013-01-12 02:53:00,
2013-01-11 22:03:00,74.0,67.0,30.17,ESE,113,8.0,12.0,79,-99.99,,,-99.99,,2013-01-12 03:03:00,
2013-01-11 22:12:00,74.0,67.0,30.17,ESE,118,8.0,16.0,77,-99.99,,,-99.99,,2013-01-12 03:12:00,
2013-01-11 22:22:00,74.0,67.0,30.17,ESE,118,8.0,16.0,77,-99.99,,,-99.99,,2013-01-12 03:22:00,
2013-01-11 22:33:00,74.0,67.0,30.16,ESE,112,9.0,13.0,77,-99.99,,,-99.99,,2013-01-12 03:33:00,
2013-01-11 22:43:00,74.0,66.0,30.16,ESE,112,9.0,16.0,76,-99.99,,,-99.99,,2013-01-12 03:43:00,
2013-01-11 22:53:00,74.0,66.0,30.16,ESE,114,9.0,14.0,75,-99.99,,,-99.99,,2013-01-12 03:53:00,
2013-01-11 23:02:00,74.0,66.0,30.16,ESE,114,9.0,14.0,75,-99.99,,,-99.99,,2013-01-12 04:02:00,
2013-01-11 23:12:00,74.0,66.0,30.16,ESE,111,10.0,16.0,75,-99.99,,,-99.99,,2013-01-12 04:12:00,
2013-01-11 23:22:00,74.0,66.0,30.16,ESE,111,10.0,16.0,75,-99.99,,,-99.99,,2013-01-12 04:22:00,
2013-01-11 23:32:00,74.0,66.0,30.16,ESE,110,9.0,15.0,74,-99.99,,,-99.99,,2013-01-12 04:32:00,
2013-01-11 23:42:00,74.0,66.0,30.16,ESE,110,9.0,15.0,74,-99.99,,,-99.99,,2013-01-12 04:42:00,
2013-01-11 23:52:00,74.0,67.0,30.14,ESE,109,9.0,15.0,78,-99.99,,,-99.99,,2013-01-12 04:52:00,